User: anonymous   Login
Location: Unspecified
(0.0000°N, 0.0000°E)
Time: 05:11:34
(UTC+00:00)
Language:

APRIZESAT 3 - Orbit

View from above orbital plane
View from above orbital plane
View from above satellite
View from above satellite

Ground track
Ground track

The orbit data is extracted from the following two-line orbital elements,

1 35686U 09041F   14295.48750188  .00003037  00000-0  34164-3 0  6580
2 35686 098.1632 244.9649 0073819 282.7234 195.9844 14.85537724283271
Epoch (UTC): 22 October 2014 11:42:00
Eccentricity: 0.0073819
inclination: 98.1632°
perigee height: 560 km
apogee height: 663 km
right ascension of ascending node: 244.9649°
argument of perigee: 282.7234°
revolutions per day: 14.85537724
mean anomaly at epoch: 195.9844°
orbit number at epoch: 28327

The dashed part of the orbit path shows where the satellite is in the earth's shadow,  

DLR